GW0392 Weather Reports


time (UTC)temp
C
wind
direction
speed
KPH
gust
KPH
rain 1hr
cm
rain 24hr
cm
rain mn
cm
humidity
%
barometer
mb
20260902153450 31 214 1.6 3.2 0.00 0.00 0.00 69 1020.7
20260902152945 31 217 1.6 1.6 0.00 0.00 0.00 68 1020.4
20260902152442 31 214 0.0 1.6 0.00 0.00 0.00 70 1020.6
20260902151937 31 201 1.6 1.6 0.00 0.00 0.00 72 1020.6
20260902151433 31 217 0.0 0.0 0.00 0.00 0.00 71 1020.5
20260902150926 30 216 0.0 1.6 0.00 0.00 0.00 72 1020.5
20260902150423 30 218 0.0 3.2 0.00 0.00 0.00 73 1020.4
20260902145922 30 217 0.0 0.0 0.00 0.00 0.00 72 1020.5
20260902145418 30 219 1.6 1.6 0.00 0.00 0.00 74 1020.5
20260902144913 29 217 1.6 1.6 0.00 0.00 0.00 74 1020.5
20260902144409 29 221 0.0 0.0 0.00 0.00 0.00 76 1020.6
20260902143903 29 218 0.0 0.0 0.00 0.00 0.00 76 1020.5
20260902143358 28 224 0.0 0.0 0.00 0.00 0.00 77 1020.4
20260902142853 28 220 0.0 1.6 0.00 0.00 0.00 78 1020.3
20260902142349 28 216 0.0 1.6 0.00 0.00 0.00 80 1020.5
20260902141844 28 217 0.0 1.6 0.00 0.00 0.00 79 1020.6
20260902141340 28 211 0.0 0.0 0.00 0.00 0.00 81 1020.4
20260902140839 27 225 0.0 0.0 0.00 0.00 0.00 82 1020.6
20260902140334 28 223 0.0 0.0 0.00 0.00 0.00 81 1020.4
20260902135833 27 228 0.0 0.0 0.00 0.00 0.00 82 1020.5
20260902135330 26 227 0.0 0.0 0.00 0.00 0.00 85 1020.5
20260902134828 26 227 0.0 0.0 0.00 0.00 0.00 87 1020.4
20260902134324 26 225 0.0 0.0 0.00 0.00 0.00 88 1020.9
20260902133820 25 229 0.0 0.0 0.00 0.00 0.00 89 1020.6
20260902133319 25 225 0.0 0.0 0.00 0.00 0.00 91 1020.6
20260902132815 25 226 0.0 0.0 0.00 0.00 0.00 91 1020.5
20260902132310 24 224 0.0 0.0 0.00 0.00 0.00 92 1020.5
20260902131805 24 229 0.0 0.0 0.00 0.00 0.00 93 1020.8
20260902131302 23 227 0.0 0.0 0.00 0.00 0.00 94 1020.7
20260902130801 23 226 0.0 0.0 0.00 0.00 0.00 95 1020.7
20260902130257 23 225 0.0 0.0 0.00 0.00 0.00 96 1020.3
20260902125752 23 222 0.0 0.0 0.00 0.00 0.00 97 1020.5
20260902125248 22 223 0.0 0.0 0.00 0.00 0.00 98 1020.4
20260902124744 22 222 0.0 0.0 0.00 0.00 0.00 98 1020.4
20260902124239 22 223 0.0 0.0 0.00 0.00 0.00 99 1020.3
20260902123729 22 225 0.0 0.0 0.00 0.00 0.00 99 1020.3
20260902123225 22 221 0.0 0.0 0.00 0.00 0.00 99 1020.4
20260902122724 22 221 0.0 0.0 0.00 0.00 0.00 99 1020.3
20260902122220 22 221 0.0 0.0 0.00 0.00 0.00 99 1020.3
20260902121720 22 221 0.0 0.0 0.00 0.00 0.00 99 1020.3
20260902121215 22 222 0.0 0.0 0.00 0.00 0.00 99 1020.2
20260902120710 21 221 0.0 0.0 0.00 0.00 0.00 99 1020.3
20260902120207 21 220 0.0 0.0 0.00 0.00 0.00 99 1020.0
20260902115706 21 220 0.0 0.0 0.00 0.00 0.00 99 1020.1
20260902115202 21 220 0.0 0.0 0.00 0.00 0.00 99 1019.9
20260902114658 21 220 0.0 0.0 0.00 0.00 0.00 99 1019.9
20260902114153 21 220 0.0 0.0 0.00 0.00 0.00 99 1019.8
20260902113649 21 220 0.0 0.0 0.00 0.00 0.00 99 1019.7
20260902113144 21 220 0.0 0.0 0.00 0.00 0.00 99 1019.6
20260902112644 21 220 0.0 0.0 0.00 0.00 0.00 99 1019.6
20260902112141 21 220 0.0 0.0 0.00 0.00 0.00 99 1019.7
20260902111636 21 220 0.0 0.0 0.00 0.00 0.00 99 1019.6
20260902111132 21 220 0.0 0.0 0.00 0.00 0.00 99 1019.3
20260902110627 21 220 0.0 0.0 0.00 0.00 0.00 99 1019.5
20260902110124 21 220 0.0 0.0 0.00 0.00 0.00 99 1019.7
20260902105623 21 220 0.0 0.0 0.00 0.00 0.00 99 1019.5
20260902105118 21 220 0.0 0.0 0.00 0.00 0.00 99 1019.5
20260902104613 21 220 0.0 0.0 0.00 0.00 0.00 99 1019.6
20260902104109 21 220 0.0 0.0 0.00 0.00 0.00 99 1019.6
20260902103608 21 220 0.0 0.0 0.00 0.00 0.00 99 1019.5
20260902103104 21 220 0.0 0.0 0.00 0.00 0.00 99 1019.4
20260902102555 21 220 0.0 0.0 0.00 0.00 0.00 99 1019.3
20260902102051 21 220 0.0 0.0 0.00 0.00 0.00 99 1019.2
20260902101547 21 220 0.0 0.0 0.00 0.00 0.00 99 1019.5
20260902101045 21 220 0.0 0.0 0.00 0.00 0.00 99 1019.3
20260902100545 21 220 0.0 0.0 0.00 0.00 0.00 99 1019.4
20260902100040 21 220 0.0 0.0 0.00 0.00 0.00 99 1019.3
20260902095540 21 220 0.0 0.0 0.00 0.00 0.00 99 1019.2
20260902095038 21 220 0.0 0.0 0.00 0.00 0.00 99 1019.2
20260902094534 21 220 0.0 0.0 0.00 0.00 0.00 99 1019.2
20260902094030 21 220 0.0 0.0 0.00 0.00 0.00 99 1019.1
20260902093525 21 220 0.0 0.0 0.00 0.00 0.00 99 1019.1
20260902093025 21 220 0.0 0.0 0.00 0.00 0.00 99 1019.2
20260902092520 21 220 0.0 0.0 0.00 0.00 0.00 99 1019.0
20260902092014 21 220 0.0 0.0 0.00 0.00 0.00 99 1018.8
20260902091510 21 220 0.0 0.0 0.00 0.00 0.00 99 1019.1
20260902091006 21 220 0.0 0.0 0.00 0.00 0.00 99 1019.2
20260902090502 22 220 0.0 0.0 0.00 0.00 0.00 99 1019.0
20260902090000 22 220 0.0 0.0 0.00 0.00 0.00 99 1019.0
20260902085455 22 220 0.0 0.0 0.00 0.00 0.00 99 1019.0
20260902084950 22 220 0.0 0.0 0.00 0.00 0.00 99 1019.0
20260902084447 22 220 0.0 0.0 0.00 0.00 0.00 99 1018.8
20260902083942 22 220 0.0 0.0 0.00 0.00 0.00 98 1018.6
20260902083442 22 220 0.0 0.0 0.00 0.00 0.00 98 1018.7
20260902082937 22 221 0.0 0.0 0.00 0.00 0.00 98 1018.5
20260902082433 22 220 0.0 0.0 0.00 0.00 0.00 98 1018.6
20260902081929 22 220 0.0 0.0 0.00 0.00 0.00 98 1018.4
20260902081425 22 221 0.0 0.0 0.00 0.00 0.00 98 1018.7
20260902080920 22 220 0.0 0.0 0.00 0.00 0.00 98 1018.5
20260902080416 22 220 0.0 0.0 0.00 0.00 0.00 98 1018.5
20260902075915 22 221 0.0 0.0 0.00 0.00 0.00 98 1018.4
20260902075412 22 220 0.0 0.0 0.00 0.00 0.00 98 1018.4
20260902074907 22 221 0.0 0.0 0.00 0.00 0.00 98 1018.3
20260902074403 22 221 0.0 0.0 0.00 0.00 0.00 98 1018.2
20260902073857 22 220 0.0 0.0 0.00 0.00 0.00 98 1018.3
20260902073354 22 220 0.0 0.0 0.00 0.00 0.00 98 1018.3
20260902072849 22 220 0.0 0.0 0.00 0.00 0.00 98 1018.4
20260902072345 22 220 0.0 0.0 0.00 0.00 0.00 98 1018.3
20260902071841 22 220 0.0 0.0 0.00 0.00 0.00 98 1018.5
20260902071340 22 220 0.0 0.0 0.00 0.00 0.00 98 1018.5
20260902070837 22 220 0.0 0.0 0.00 0.00 0.00 98 1018.5
20260902070332 22 220 0.0 0.0 0.00 0.00 0.00 98 1018.4
20260902065830 22 220 0.0 0.0 0.00 0.00 0.00 98 1018.6
20260902065326 22 220 0.0 0.0 0.00 0.00 0.00 97 1018.8
20260902064821 22 222 0.0 0.0 0.00 0.00 0.00 97 1018.6
20260902064317 22 222 0.0 0.0 0.00 0.00 0.00 97 1018.6
20260902063812 22 223 0.0 0.0 0.00 0.00 0.00 97 1018.7
20260902063307 22 223 0.0 0.0 0.00 0.00 0.00 97 1018.6
20260902062801 22 224 0.0 0.0 0.00 0.00 0.00 97 1018.7
20260902062256 22 225 0.0 0.0 0.00 0.00 0.00 97 1018.6
20260902061755 22 220 0.0 0.0 0.00 0.00 0.00 97 1018.6
20260902061250 22 220 0.0 0.0 0.00 0.00 0.00 97 1018.5
20260902060747 22 220 0.0 0.0 0.00 0.00 0.00 97 1018.5
20260902060237 22 220 0.0 0.0 0.00 0.00 0.00 97 1018.7
20260902055732 22 220 0.0 0.0 0.00 0.00 0.00 97 1018.7
20260902055229 22 220 0.0 0.0 0.00 0.00 0.00 96 1018.6
20260902054724 23 220 0.0 0.0 0.00 0.00 0.00 96 1018.7
20260902054219 23 221 0.0 0.0 0.00 0.00 0.00 96 1018.7
20260902053715 23 221 0.0 0.0 0.00 0.00 0.00 96 1018.5
20260902053214 23 221 0.0 0.0 0.00 0.00 0.00 96 1018.5
20260902052713 23 221 0.0 0.0 0.00 0.00 0.00 95 1018.7
20260902052209 23 221 0.0 0.0 0.00 0.00 0.00 95 1018.6
20260902051708 23 221 0.0 0.0 0.00 0.00 0.00 95 1018.7
20260902051203 23 221 0.0 0.0 0.00 0.00 0.00 95 1018.6
20260902050657 23 220 0.0 0.0 0.00 0.00 0.00 95 1018.6
20260902050153 23 220 0.0 0.0 0.00 0.00 0.00 95 1018.7
20260902045647 23 220 0.0 0.0 0.00 0.00 0.00 95 1018.7
20260902045144 23 220 0.0 0.0 0.00 0.00 0.00 95 1018.6
20260902044644 23 221 0.0 0.0 0.00 0.00 0.00 95 1018.5
20260902044140 23 221 0.0 0.0 0.00 0.00 0.00 94 1018.5
20260902043635 23 221 0.0 0.0 0.00 0.00 0.00 94 1018.5
20260902043130 23 221 0.0 0.0 0.00 0.00 0.00 94 1018.6
20260902042629 23 221 0.0 0.0 0.00 0.00 0.00 94 1018.5
20260902042125 23 221 0.0 0.0 0.00 0.00 0.00 94 1018.7
20260902041624 23 221 0.0 0.0 0.00 0.00 0.00 94 1018.6
20260902041119 23 221 0.0 0.0 0.00 0.00 0.00 93 1018.8
20260902040619 23 221 0.0 0.0 0.00 0.00 0.00 93 1018.6
20260902040114 23 221 0.0 0.0 0.00 0.00 0.00 93 1018.6
20260902035612 23 221 0.0 0.0 0.00 0.00 0.00 93 1018.7
20260902035108 23 221 0.0 0.0 0.00 0.00 0.00 93 1018.5
20260902034606 23 221 0.0 0.0 0.00 0.00 0.00 92 1018.7
20260902034101 23 221 0.0 0.0 0.00 0.00 0.00 92 1018.9
20260902033600 23 221 0.0 0.0 0.00 0.00 0.00 92 1018.7
20260902033055 23 221 0.0 0.0 0.00 0.00 0.00 92 1018.6
20260902032553 24 221 0.0 0.0 0.00 0.00 0.00 92 1018.7
20260902032043 24 221 0.0 0.0 0.00 0.00 0.00 92 1018.8
20260902031538 24 221 0.0 0.0 0.00 0.00 0.00 92 1018.9
20260902031034 24 221 0.0 0.0 0.00 0.00 0.00 92 1018.7
20260902030529 24 221 0.0 0.0 0.00 0.00 0.00 92 1018.5
20260902030028 25 221 0.0 0.0 0.00 0.00 0.00 91 1018.5
20260902025523 25 221 0.0 0.0 0.00 0.00 0.00 91 1018.7
20260902025018 25 221 0.0 0.0 0.00 0.00 0.00 91 1018.7
20260902024514 25 221 0.0 0.0 0.00 0.00 0.00 91 1018.7
20260902024014 25 222 0.0 0.0 0.00 0.00 0.00 90 1018.7
20260902023509 25 222 0.0 0.0 0.00 0.00 0.00 90 1018.6
20260902023004 25 222 0.0 0.0 0.00 0.00 0.00 90 1018.9
20260902022458 25 222 0.0 0.0 0.00 0.00 0.00 90 1018.7
20260902021954 25 222 0.0 0.0 0.00 0.00 0.00 90 1018.7
20260902021449 25 222 0.0 0.0 0.00 0.00 0.00 90 1018.7
20260902020944 25 221 0.0 0.0 0.00 0.00 0.00 89 1018.4
20260902020440 25 221 0.0 0.0 0.00 0.00 0.00 89 1018.5
20260902015936 25 222 0.0 0.0 0.00 0.00 0.00 89 1018.4
20260902015431 25 222 0.0 0.0 0.00 0.00 0.00 89 1018.3
20260902014926 26 222 0.0 0.0 0.00 0.00 0.00 89 1018.3
20260902014423 26 222 0.0 0.0 0.00 0.00 0.00 89 1018.3
20260902013922 26 222 0.0 0.0 0.00 0.00 0.00 88 1018.3
20260902013418 26 222 0.0 0.0 0.00 0.00 0.00 88 1018.1
20260902012913 26 222 0.0 0.0 0.00 0.00 0.00 88 1018.0
20260902012409 26 222 0.0 0.0 0.00 0.00 0.00 87 1018.0
20260902011904 26 222 0.0 0.0 0.00 0.00 0.00 86 1017.9
20260902011359 26 222 0.0 0.0 0.00 0.00 0.00 86 1018.0
20260902010859 26 222 0.0 0.0 0.00 0.00 0.00 86 1018.1
20260902010353 26 221 0.0 0.0 0.00 0.00 0.00 86 1018.0
20260902005853 27 222 0.0 0.0 0.00 0.00 0.00 85 1017.9
20260902005347 27 225 0.0 0.0 0.00 0.00 0.00 84 1017.7
20260902004843 27 225 0.0 0.0 0.00 0.00 0.00 84 1017.8
20260902004342 27 225 0.0 0.0 0.00 0.00 0.00 83 1017.8
20260902003838 27 224 0.0 0.0 0.00 0.00 0.00 83 1017.9
20260902003333 27 224 0.0 0.0 0.00 0.00 0.00 81 1017.7
20260902002829 28 225 0.0 0.0 0.00 0.00 0.00 81 1017.7
20260902002327 28 225 0.0 0.0 0.00 0.00 0.00 80 1017.5
20260902001823 28 225 0.0 0.0 0.00 0.00 0.00 80 1017.8
20260902001319 28 223 0.0 0.0 0.00 0.00 0.00 79 1017.8
20260902000818 28 223 0.0 0.0 0.00 0.00 0.00 77 1017.5
20260902000313 29 224 0.0 0.0 0.00 0.00 0.00 77 1017.7
20260901235808 29 223 0.0 0.0 0.00 0.00 0.00 76 1017.7
20260901235307 29 226 0.0 0.0 0.00 0.00 0.00 75 1017.7
20260901234802 30 226 0.0 0.0 0.00 0.00 0.00 74 1017.3
20260901234257 30 221 0.0 0.0 0.00 0.00 0.00 73 1017.7
20260901233758 30 227 0.0 0.0 0.00 0.00 0.00 73 1017.7
20260901233253 31 225 0.0 0.0 0.00 0.00 0.00 71 1017.9
20260901232749 31 225 0.0 0.0 0.00 0.00 0.00 69 1017.8
20260901232243 31 225 0.0 0.0 0.00 0.00 0.00 69 1017.9
20260901231739 31 225 0.0 0.0 0.00 0.00 0.00 67 1017.8
20260901231236 32 225 0.0 0.0 0.00 0.00 0.00 64 1017.7
20260901230726 32 225 0.0 0.0 0.00 0.00 0.00 63 1017.5
20260901230225 32 225 0.0 0.0 0.00 0.00 0.00 66 1017.9
20260901225721 32 225 0.0 0.0 0.00 0.00 0.00 62 1017.4
20260901225215 32 225 0.0 0.0 0.00 0.00 0.00 61 1017.7
20260901224711 32 225 0.0 0.0 0.00 0.00 0.00 60 1017.4
20260901224207 32 225 0.0 0.0 0.00 0.00 0.00 60 1017.5
20260901223703 33 225 0.0 0.0 0.00 0.00 0.00 58 1017.7
20260901223157 33 225 0.0 0.0 0.00 0.00 0.00 59 1017.5
20260901222654 33 225 0.0 0.0 0.00 0.00 0.00 58 1017.4
20260901222150 33 223 0.0 0.0 0.00 0.00 0.00 57 1017.4
20260901221646 33 223 0.0 0.0 0.00 0.00 0.00 56 1017.7
20260901221141 33 228 0.0 0.0 0.00 0.00 0.00 55 1017.4
20260901220640 33 229 0.0 0.0 0.00 0.00 0.00 54 1017.4
20260901220139 33 228 0.0 0.0 0.00 0.00 0.00 54 1017.5
20260901215638 33 230 0.0 0.0 0.00 0.00 0.00 54 1017.4
20260901215133 33 229 0.0 0.0 0.00 0.00 0.00 56 1017.3
20260901214631 33 226 0.0 0.0 0.00 0.00 0.00 56 1017.5
20260901214131 33 224 0.0 0.0 0.00 0.00 0.00 57 1017.4
20260901213625 32 223 0.0 0.0 0.00 0.00 0.00 61 1017.4
20260901213120 32 222 0.0 0.0 0.00 0.00 0.00 62 1017.5
20260901212619 32 222 0.0 0.0 0.00 0.00 0.00 63 1017.8
20260901212116 32 226 0.0 0.0 0.00 0.00 0.00 63 1017.7
20260901211610 32 226 0.0 0.0 0.00 0.00 0.00 60 1017.7
20260901211107 33 226 0.0 0.0 0.00 0.00 0.00 57 1017.8
20260901210602 33 226 0.0 0.0 0.00 0.00 0.00 54 1017.4
20260901210058 33 226 0.0 0.0 0.00 0.00 0.00 54 1017.7
20260901205554 33 226 0.0 0.0 0.00 0.00 0.00 52 1017.4
20260901205053 33 228 0.0 0.0 0.00 0.00 0.00 54 1017.7
20260901204550 33 226 0.0 0.0 0.00 0.00 0.00 54 1017.9
20260901204044 33 226 0.0 0.0 0.00 0.00 0.00 53 1017.7
20260901203539 34 227 0.0 0.0 0.00 0.00 0.00 51 1017.9
20260901203034 35 225 0.0 0.0 0.00 0.00 0.00 51 1018.0
20260901202528 34 225 0.0 1.6 0.00 0.00 0.00 50 1017.9
20260901202025 34 225 0.0 0.0 0.00 0.00 0.00 52 1018.1
20260901201520 33 224 0.0 1.6 0.00 0.00 0.00 52 1018.2
20260901201014 34 245 3.2 3.2 0.00 0.00 0.00 51 1018.2
20260901200508 34 228 0.0 1.6 0.00 0.00 0.00 50 1018.2
20260901200009 35 231 1.6 1.6 0.00 0.00 0.00 50 1018.3
20260901195506 35 216 0.0 1.6 0.00 0.00 0.00 49 1018.4
20260901195006 35 269 1.6 3.2 0.00 0.00 0.00 49 1018.4
20260901194501 34 242 1.6 3.2 0.00 0.00 0.00 50 1018.2
20260901193956 33 225 1.6 1.6 0.00 0.00 0.00 50 1018.6
20260901193451 34 228 0.0 1.6 0.00 0.00 0.00 54 1018.6
20260901192950 33 225 0.0 1.6 0.00 0.00 0.00 52 1018.7
20260901192446 33 226 0.0 1.6 0.00 0.00 0.00 55 1018.7
20260901191942 32 231 0.0 1.6 0.00 0.00 0.00 58 1018.9
20260901191438 33 226 0.0 1.6 0.00 0.00 0.00 57 1018.9
20260901190933 33 237 1.6 1.6 0.00 0.00 0.00 57 1019.1
20260901190428 33 216 1.6 3.2 0.00 0.00 0.00 57 1019.0
20260901185926 33 227 0.0 3.2 0.00 0.00 0.00 55 1018.9
20260901185426 33 226 0.0 1.6 0.00 0.00 0.00 53 1018.8
20260901184920 33 227 0.0 0.0 0.00 0.00 0.00 54 1019.1
20260901184416 33 224 0.0 0.0 0.00 0.00 0.00 52 1019.2
20260901183911 33 208 1.6 3.2 0.00 0.00 0.00 52 1019.3
20260901183410 34 235 1.6 1.6 0.00 0.00 0.00 52 1019.3
20260901182907 34 229 1.6 1.6 0.00 0.00 0.00 52 1019.1
20260901182402 35 231 1.6 3.2 0.00 0.00 0.00 50 1019.1
20260901181857 35 222 3.2 3.2 0.00 0.00 0.00 50 1019.3
20260901181357 35 218 1.6 3.2 0.00 0.00 0.00 52 1019.3
20260901180855 34 223 0.0 3.2 0.00 0.00 0.00 54 1019.5
20260901180355 33 207 1.6 3.2 0.00 0.00 0.00 54 1019.2
20260901175853 33 227 0.0 0.0 0.00 0.00 0.00 58 1019.5
20260901175348 33 228 0.0 0.0 0.00 0.00 0.00 56 1019.6
20260901174844 33 229 0.0 1.6 0.00 0.00 0.00 56 1019.4
20260901174339 33 228 0.0 3.2 0.00 0.00 0.00 57 1019.6
20260901173835 33 231 1.6 3.2 0.00 0.00 0.00 57 1019.8
20260901173329 33 220 0.0 1.6 0.00 0.00 0.00 58 1019.8
20260901172826 33 222 0.0 3.2 0.00 0.00 0.00 55 1019.8
20260901172325 33 215 3.2 3.2 0.00 0.00 0.00 54 1019.8
20260901171823 32 249 1.6 3.2 0.00 0.00 0.00 57 1020.0
20260901171322 31 231 0.0 3.2 0.00 0.00 0.00 59 1020.1
20260901170817 31 219 0.0 1.6 0.00 0.00 0.00 63 1020.1
20260901170317 32 234 1.6 3.2 0.00 0.00 0.00 60 1020.2
20260901165815 32 227 0.0 0.0 0.00 0.00 0.00 59 1020.3
20260901165310 33 228 0.0 0.0 0.00 0.00 0.00 58 1020.3
20260901164807 33 224 0.0 0.0 0.00 0.00 0.00 58 1020.1
20260901164302 32 218 1.6 1.6 0.00 0.00 0.00 59 1020.3
20260901163756 32 222 1.6 4.8 0.00 0.00 0.00 61 1020.1
20260901163251 32 220 1.6 8.0 0.00 0.00 0.00 60 1020.5
20260901162746 32 206 1.6 3.2 0.00 0.00 0.00 61 1020.7
20260901162245 32 219 1.6 3.2 0.00 0.00 0.00 58 1020.5
20260901161744 32 223 0.0 1.6 0.00 0.00 0.00 59 1020.5
20260901161239 32 200 1.6 3.2 0.00 0.00 0.00 62 1020.7
20260901160735 31 201 1.6 4.8 0.00 0.00 0.00 63 1020.5
20260901160231 32 224 0.0 3.2 0.00 0.00 0.00 63 1020.8
20260901155729 31 215 1.6 3.2 0.00 0.00 0.00 64 1020.9
20260901155224 31 225 1.6 3.2 0.00 0.00 0.00 64 1020.9
20260901154720 31 206 3.2 3.2 0.00 0.00 0.00 66 1020.9
20260901154214 31 163 3.2 3.2 0.00 0.00 0.00 66 1021.0